Tracking 30995 objects as of 5-Jul-2025
HD Live streaming from Space Station
objects crossing your sky now

STARLINK-3366

Track STARLINK-3366 now!
10-day predictions
STARLINK-3366 is classified as:


NORAD ID: 51104
Int'l Code: 2022-005A
Perigee: 546.0 km
Apogee: 547.8 km
Inclination: 53.2 °
Period: 95.4 minutes
Semi major axis: 6917 km
RCS: Unknown
Launch date: January 19, 2022
Source: United States (US)
Launch site: AIR FORCE EASTERN TEST RANGE (AFETR)
Your satellite tracking list
Your tracking list is empty




NASA's NSSDC Master Catalog

Two Line Element Set (TLE):
1 51104U 22005A   25186.59782330 -.00000387  00000-0 -62586-5 0  9991
2 51104  53.2185 318.3595 0001310 101.0250 259.0890 15.08832609191573
Source of the keplerian elements: AFSPC